[[{"header":{"parameterUnit":"m.s-1","parameterCategory":1,"la1":30.2991,"la2":30.254,"lo1":-89.0895,"lo2":-89.0444,"dy":0.0017,"dx":0.0017,"nx":28,"ny":28,"refTime":"2025-07-07T09:00:00:Z","depth":0,"parameterNumber":2,"parameterNumberName":"U-component_of_WINDS"},"data":[0,0,0,0,0,0,0,0,0,0,0,0,0,0,0,0,0,0,0,0,0,0,0,0,0,0,0,0,0,0,0,0,0,0,0,0,0,0,0,0,0,0,0,0,0,0,0,0,0,0,0,0,0,0,0,0,0,0,3.1234,3.1235,0,3.1334,3.1336,3.1337,3.1317,3.1315,3.1313,3.1312,3.1415,3.1419,3.1424,0,0,0,0,0,0,0,0,0,0,0,0,0,3.1022,3.1026,3.1233,3.1235,3.1236,3.1334,3.1336,3.1337,3.1317,3.1315,3.1313,3.1311,3.1413,3.1419,3.1424,0,0,0,0,0,0,0,0,0,0,0,0,0,3.1118,3.1027,3.1233,3.1238,3.1239,3.1334,3.1336,3.1337,3.1318,3.1315,3.1312,3.131,3.1412,3.1418,3.1425,3.1521,0,0,3.1445,3.1448,0,0,0,0,0,0,0,0,3.1112,3.1125,3.1236,3.1238,3.124,3.131,3.1299,3.1399,3.1318,3.1288,3.1312,3.1308,3.1382,3.1391,3.1416,3.1526,3.153,3.1446,3.145,3.1453,3.1455,0,0,0,0,0,0,0,3.1106,3.1121,3.1273,3.1238,3.124,3.1235,3.1245,3.1318,3.1349,3.129,3.1289,3.1302,3.1383,3.141,3.1418,3.1532,3.1446,3.1452,3.1456,3.1458,3.1721,3.1724,0,0,0,0,0,0,3.1097,3.1115,3.127,3.1276,3.1168,3.1241,3.1252,3.129,3.1348,3.1355,3.1304,3.13,3.14,3.1411,3.1422,3.1535,3.1453,3.1459,3.1463,3.1718,3.1722,3.1725,0,0,0,0,0,0,3.1093,3.1111,3.1266,3.1196,3.1215,3.1247,3.129,3.1294,3.1321,3.1358,3.1364,3.1326,3.1398,3.1413,3.1496,3.1539,3.1462,3.1468,3.1715,3.172,3.1724,3.1765,0,0,0,0,0,0,3.1087,3.111,3.1147,3.1197,3.1219,3.1339,3.1293,3.1298,3.1332,3.1329,3.138,3.1386,3.1397,3.1486,3.1502,3.1547,3.1473,3.1711,3.1717,3.1722,3.176,3.177,3.1779,0,0,0,0,0,3.108,3.1156,3.1149,3.1168,3.1266,3.1341,3.1354,3.1364,3.1336,3.1373,3.1397,3.1385,3.1532,3.1494,3.1513,3.156,3.1708,3.1715,3.1722,3.1755,3.1768,3.1779,0,0,0,0,0,0,3.1111,3.1162,3.1156,3.125,3.1291,3.1338,3.1385,3.1378,3.1428,3.1423,3.1434,3.1446,3.1529,3.1553,3.1511,3.1654,3.1616,3.1627,3.1635,3.1648,3.1657,3.1649,3.1479,0,0,0,0,0,3.1129,3.1186,3.1228,3.1307,3.1328,3.1353,3.1386,3.1391,3.1434,3.1451,3.1481,3.1523,3.1578,3.1615,3.1668,3.1764,3.1773,3.1805,3.1815,3.1823,3.1831,3.188,3.1894,3.1747,3.1747,3.1747,0,0,3.1167,3.1202,3.1237,3.1314,3.1346,3.1404,3.1368,3.1431,3.1473,3.1461,3.154,3.1564,3.1611,3.17,3.1741,3.1722,3.1874,3.1831,3.1837,3.1841,3.1889,3.1902,3.1915,3.1752,3.1751,3.175,0,0,3.1264,3.1298,3.1366,3.1398,3.1448,3.1463,3.148,3.1527,3.1542,3.1622,3.1612,3.1663,3.1759,3.1792,3.1822,3.193,3.1919,3.1947,3.1997,3.2045,3.2056,3.2066,3.2102,3.2115,3.1956,3.1956,3.1956,0,3.1304,3.1391,3.1402,3.1465,3.1498,3.1489,3.1556,3.1588,3.1652,3.1675,3.1654,3.1772,3.1804,3.1899,3.1925,3.195,3.1967,3.194,3.2054,3.2064,3.2074,3.2108,3.2122,3.1959,3.1958,3.1958,3.1958,0,3.1437,3.1497,3.1546,3.1607,3.1646,3.1712,3.1731,3.1769,3.177,3.1787,3.1867,3.1905,3.1964,3.1988,3.199,3.2082,3.2069,3.2051,3.2012,3.209,3.2122,3.2136,3.1963,3.1962,3.1961,3.196,0,0,3.1557,3.1621,3.1639,3.1665,3.1718,3.1764,3.1829,3.1886,3.1917,3.1962,3.2015,3.2095,3.2078,3.2112,3.2117,3.216,3.2239,3.2136,3.2137,3.2151,3.234,3.2351,3.2366,3.2233,3.2236,3.2238,3.2335,0,3.1657,3.177,3.178,3.1881,3.1935,3.1926,3.1982,3.202,3.2038,3.2086,3.2106,3.2162,3.2137,3.2156,3.2198,3.222,3.2276,3.2214,3.228,3.2283,3.2266,3.2383,3.2396,3.2486,3.2348,3.235,3.2352,0,3.1789,3.1835,3.1941,3.1984,3.2007,3.2057,3.2109,3.2156,3.2198,3.2208,3.2244,3.2244,3.2309,3.2269,3.2357,3.2314,3.2342,3.2357,3.2361,3.2365,3.232,3.2389,3.2515,3.2527,3.2372,3.237,3.2369,0,3.1861,3.1951,3.2026,3.2049,3.2101,3.2136,3.2159,3.2199,3.2232,3.2278,3.2299,3.2352,3.238,3.2421,3.2434,3.2405,3.2521,3.2483,3.2529,3.2529,3.2552,3.255,3.2682,3.2575,3.2575,3.2574,3.2574,0,3.197,3.2035,3.2058,3.2104,3.2175,3.2186,3.2256,3.2278,3.2313,3.2361,3.2358,3.2404,3.2419,3.2467,3.2479,3.2548,3.2562,3.257,3.2572,3.2569,3.2568,3.2586,3.2579,3.2578,3.2577,3.2577,3.2576,0,3.2063,3.2082,3.2162,3.2204,3.2216,3.2267,3.2303,3.2346,3.2363,3.2424,3.2439,3.2466,3.2522,3.254,3.2608,3.2615,3.2695,3.2693,3.2681,3.268,3.2724,3.2719,3.2871,3.289,3.2772,3.2774,3.2775,0,3.213,3.2179,3.2227,3.2258,3.2283,3.2335,3.2368,3.2381,3.2415,3.2465,3.2502,3.2557,3.2602,3.2692,3.2717,3.2768,3.2765,3.2815,3.2773,3.2768,3.2763,3.2758,3.2762,3.2822,3.2823,3.2824,3.2825,0,3.2246,3.2252,3.23,3.2351,3.239,3.2431,3.247,3.2497,3.2514,3.2553,3.261,3.2645,3.2713,3.2767,3.2819,3.2843,3.2836,3.2838,3.2851,3.2848,3.2837,3.284,3.2699,3.2834,3.2834,3.2833,3.2832,3.2832,3.2326,3.2368,3.2407,3.246,3.249,3.2526,3.2568,3.259,3.2637,3.2693,3.2698,3.2759,3.2797,3.2866,3.2892,3.2939,3.2925,3.2945,3.2949,3.2953,3.2955,3.2832,3.2949,3.2949,3.2949,3.2949,3.2949,0,3.2439,3.2463,3.2512,3.2566,3.2607,3.2598,3.264,3.2674,3.2728,3.2765,3.2808,3.2872,3.2924,3.2953,3.3004,3.3036,3.3034,3.3049,3.3046,3.305,3.2966,3.2948,3.305,3.305,3.305,3.3049,3.3049,3.3049,3.2503,3.2572,3.2583,3.2667,3.2691,3.2749,3.2774,3.2806,3.2835,3.2907,3.2949,3.2968,3.3001,3.3055,3.3101,3.3108,3.3126,3.3142,3.3147,3.3067,3.3057,3.3047,3.303,3.3147,3.3147,3.3227,3.3228,3.3228]},{"header":{"parameterUnit":"m.s-1","parameterCategory":1,"la1":30.2991,"la2":30.254,"lo1":-89.0895,"lo2":-89.0444,"dy":0.0017,"dx":0.0017,"nx":28,"ny":28,"refTime":"2025-07-07T09:00:00:Z","depth":0,"parameterNumber":3,"parameterNumberName":"V-component_of_WINDS"},"data":[0,0,0,0,0,0,0,0,0,0,0,0,0,0,0,0,0,0,0,0,0,0,0,0,0,0,0,0,0,0,0,0,0,0,0,0,0,0,0,0,0,0,0,0,0,0,0,0,0,0,0,0,0,0,0,0,0,0,0.6706,0.6706,0,0.6694,0.6694,0.6694,0.6661,0.6661,0.666,0.6659,0.6648,0.6648,0.6648,0,0,0,0,0,0,0,0,0,0,0,0,0,0.6701,0.6702,0.6706,0.6706,0.6706,0.6694,0.6694,0.6694,0.6661,0.6661,0.666,0.6659,0.6647,0.6648,0.6648,0,0,0,0,0,0,0,0,0,0,0,0,0,0.6698,0.6702,0.6706,0.6688,0.6687,0.6694,0.6694,0.6694,0.6662,0.6661,0.6659,0.6658,0.6647,0.6648,0.6648,0.6672,0,0,0.665,0.665,0,0,0,0,0,0,0,0,0.6698,0.6698,0.6691,0.6689,0.6688,0.6678,0.6688,0.6686,0.6662,0.6671,0.6659,0.6658,0.6659,0.6658,0.6658,0.6672,0.6671,0.665,0.665,0.665,0.6651,0,0,0,0,0,0,0,0.6698,0.6698,0.6701,0.6691,0.6689,0.6681,0.6679,0.6687,0.6671,0.667,0.6668,0.6667,0.6657,0.6658,0.6658,0.6671,0.665,0.665,0.6651,0.6651,0.6703,0.6704,0,0,0,0,0,0,0.6701,0.6699,0.6702,0.6701,0.669,0.6682,0.668,0.6682,0.6671,0.6668,0.6668,0.6665,0.6657,0.6657,0.6657,0.6684,0.665,0.6651,0.6651,0.6701,0.6703,0.6704,0,0,0,0,0,0,0.6701,0.6702,0.6702,0.6699,0.6699,0.6683,0.6686,0.6682,0.6683,0.6669,0.6666,0.6671,0.6657,0.6656,0.6668,0.6683,0.6651,0.6652,0.67,0.6702,0.6703,0.6738,0,0,0,0,0,0,0.6701,0.6702,0.6711,0.67,0.6699,0.6714,0.6687,0.6683,0.6684,0.668,0.6671,0.6669,0.6656,0.6668,0.6669,0.6683,0.6652,0.6699,0.6701,0.6703,0.6735,0.6741,0.6745,0,0,0,0,0,0.6701,0.6722,0.6712,0.6712,0.671,0.6715,0.6714,0.6699,0.6685,0.6694,0.6685,0.6669,0.6681,0.6669,0.667,0.6685,0.6698,0.67,0.6703,0.6733,0.674,0.6745,0,0,0,0,0,0,0.6736,0.672,0.6709,0.6726,0.6722,0.6709,0.672,0.6706,0.6706,0.6703,0.6684,0.6683,0.6697,0.6692,0.6679,0.6707,0.6687,0.669,0.671,0.6716,0.672,0.6721,0.6652,0,0,0,0,0,0.6745,0.6751,0.6736,0.6753,0.6752,0.6736,0.6738,0.6726,0.6721,0.672,0.6711,0.6707,0.671,0.6712,0.6714,0.6734,0.6731,0.6745,0.6749,0.6753,0.6756,0.6765,0.6771,0.6712,0.6712,0.6712,0,0,0.6766,0.6758,0.6762,0.676,0.6755,0.6761,0.6735,0.6743,0.6747,0.6721,0.6732,0.6725,0.6719,0.6735,0.6742,0.6731,0.6771,0.6756,0.676,0.676,0.6768,0.6774,0.6779,0.6713,0.6713,0.6713,0,0,0.6805,0.68,0.6813,0.6808,0.6802,0.6791,0.6794,0.6783,0.6778,0.6788,0.6769,0.6773,0.6778,0.6775,0.6774,0.681,0.6795,0.6811,0.6836,0.6845,0.685,0.6854,0.6867,0.6872,0.6814,0.6814,0.6814,0,0.6832,0.6839,0.6821,0.683,0.6829,0.6805,0.6818,0.6815,0.6809,0.6809,0.6797,0.6803,0.6797,0.6811,0.682,0.682,0.6823,0.6813,0.6851,0.6855,0.6858,0.687,0.6875,0.6816,0.6816,0.6815,0.6815,0,0.6871,0.6877,0.6888,0.6883,0.6883,0.6894,0.6877,0.688,0.6868,0.6858,0.6869,0.6861,0.686,0.6863,0.6851,0.6875,0.6869,0.6854,0.6834,0.6866,0.6877,0.6881,0.6819,0.6818,0.6817,0.6817,0,0,0.6934,0.6917,0.6922,0.6918,0.6908,0.6912,0.6921,0.692,0.6922,0.6919,0.6926,0.693,0.6916,0.6915,0.6903,0.6911,0.694,0.6895,0.6895,0.6904,0.6965,0.6976,0.6982,0.693,0.693,0.6931,0.6965,0,0.6971,0.6986,0.6969,0.6987,0.6992,0.6968,0.6976,0.697,0.6962,0.6964,0.6954,0.6957,0.6939,0.6938,0.6945,0.6935,0.6952,0.6932,0.6936,0.6936,0.6938,0.6987,0.6999,0.7032,0.6969,0.697,0.6971,0,0.7017,0.7015,0.7033,0.702,0.7022,0.7029,0.7026,0.7029,0.7022,0.7015,0.7012,0.6997,0.7005,0.6984,0.6995,0.6981,0.6982,0.6977,0.6978,0.6978,0.6956,0.6989,0.7042,0.7047,0.6977,0.6977,0.6976,0,0.706,0.7062,0.7073,0.7071,0.7057,0.7062,0.7056,0.7048,0.7048,0.7046,0.7045,0.7044,0.7043,0.7042,0.7027,0.7013,0.7039,0.7017,0.7033,0.7033,0.704,0.7039,0.7094,0.704,0.704,0.7039,0.7039,0,0.7104,0.7116,0.7092,0.7099,0.7111,0.7092,0.7105,0.7097,0.7089,0.7094,0.7073,0.7078,0.7057,0.706,0.7048,0.7057,0.7057,0.7052,0.7048,0.7054,0.7054,0.7054,0.7051,0.7041,0.704,0.704,0.704,0,0.7155,0.7139,0.7149,0.7135,0.7131,0.7141,0.7128,0.7134,0.7123,0.7129,0.7129,0.7112,0.7114,0.7098,0.7097,0.7089,0.7104,0.7097,0.7107,0.7104,0.7121,0.712,0.7177,0.7184,0.7125,0.7126,0.7126,0,0.7184,0.7192,0.7178,0.7179,0.7175,0.7177,0.7177,0.7158,0.7158,0.715,0.7156,0.7156,0.7155,0.7158,0.7146,0.7145,0.7137,0.7157,0.7137,0.7142,0.7137,0.7137,0.7137,0.7162,0.7163,0.7163,0.7164,0,0.7236,0.7228,0.7228,0.7225,0.7225,0.7222,0.7217,0.722,0.7199,0.72,0.7201,0.72,0.7198,0.7198,0.7194,0.7188,0.7173,0.717,0.7174,0.7179,0.7184,0.7182,0.7118,0.7169,0.7169,0.7168,0.7168,0.7168,0.7277,0.7283,0.7274,0.7274,0.7269,0.7265,0.7269,0.7258,0.7258,0.7255,0.7244,0.7247,0.7238,0.7231,0.7227,0.7228,0.7218,0.7224,0.7225,0.7227,0.723,0.7184,0.7228,0.7227,0.7227,0.7227,0.7227,0,0.7328,0.7321,0.7321,0.7315,0.7316,0.73,0.7294,0.7295,0.7298,0.7291,0.729,0.7291,0.729,0.7277,0.7275,0.7279,0.7272,0.7279,0.7279,0.7278,0.7239,0.7236,0.7285,0.7285,0.7285,0.7285,0.7285,0.7285,0.7355,0.7364,0.7355,0.7361,0.7353,0.7355,0.7353,0.7349,0.7344,0.7345,0.7345,0.7336,0.7327,0.7323,0.7322,0.7318,0.7318,0.7328,0.7322,0.7286,0.728,0.7275,0.7272,0.7328,0.7328,0.7361,0.7361,0.7361]}]]